Location: Hillern
(53.0557°N, 9.8577°E)
Time: 00:04:22
(UTC+00:00)

Spot 1 - Pass Details

Date: 19 May 2025
Orbit: 568 x 753 km, 98.7° (Epoch: 21 June)

Event Time Altitude Azimuth Distance (km) Brightness Sun altitude
Rises 23:17:34 0° 14° (NNE) 2,850 9.0 -17.0°
Reaches altitude 10° 23:19:42 10° 12° (NNE) 1,965 7.9 -17.0°
Maximum altitude 23:23:56 69° 289° (WNW) 675 4.2 -16.9°
Enters shadow 23:26:12 28° 213° (SSW) 1,205 5.1 -16.9°
